GIPSM EGNH-EGPK

Flight info

Callsign GIPSM
Flight time 0h 45m
Altitude 4500
Route WL DCT TRN
Aircraft C208/L-SDFGR/C

Departure

Time 2026-04-23 16:16
Airport Blackpool Airport (EGNH)

Arrival

Time 2026-04-23 17:01
Airport Glasgow Prestwick Airport (EGPK)
Time Latitude Longitude Altitude Speed Heading
2026-04-23 16:15 53.83174 -3.14078 2039 ft 146 kts 345°
2026-04-23 16:16 53.84135 -3.14546 2192 ft 145 kts 350°
2026-04-23 16:16 53.85142 -3.14922 2310 ft 147 kts 355°
2026-04-23 16:16 53.86162 -3.15159 2464 ft 146 kts 354°
2026-04-23 16:16 53.87177 -3.15565 2479 ft 153 kts 351°
2026-04-23 16:17 53.88205 -3.15944 2604 ft 149 kts 354°
2026-04-23 16:17 53.89230 -3.16210 2746 ft 145 kts 358°
2026-04-23 16:17 53.90251 -3.16347 2842 ft 147 kts
2026-04-23 16:17 53.91238 -3.16525 3121 ft 137 kts 349°
2026-04-23 16:18 53.92189 -3.16962 3188 ft 146 kts 348°
2026-04-23 16:18 53.93158 -3.17429 3373 ft 142 kts 345°
2026-04-23 16:18 53.94100 -3.17931 3517 ft 143 kts 345°
2026-04-23 16:18 53.95071 -3.18444 3652 ft 144 kts 345°
2026-04-23 16:19 53.96018 -3.18940 3822 ft 142 kts 345°
2026-04-23 16:19 53.96997 -3.19443 3942 ft 144 kts 345°
2026-04-23 16:19 53.97941 -3.19914 4105 ft 142 kts 346°
2026-04-23 16:19 53.98910 -3.20379 4214 ft 145 kts 347°
2026-04-23 16:20 53.99882 -3.20831 4370 ft 142 kts 348°
2026-04-23 16:20 54.00858 -3.21224 4420 ft 148 kts 350°
2026-04-23 16:20 54.01878 -3.21560 4524 ft 148 kts 353°
2026-04-23 16:20 54.02924 -3.21829 4555 ft 153 kts 353°
2026-04-23 16:21 54.03983 -3.22242 4563 ft 158 kts 346°
2026-04-23 16:21 54.05071 -3.22744 4516 ft 163 kts 349°
2026-04-23 16:21 54.06188 -3.23074 4540 ft 160 kts 353°
2026-04-23 16:21 54.07275 -3.23476 4526 ft 163 kts 346°
2026-04-23 16:22 54.08374 -3.24032 4513 ft 164 kts 347°
2026-04-23 16:22 54.09484 -3.24449 4540 ft 162 kts 354°
2026-04-23 16:22 54.10578 -3.24656 4527 ft 164 kts 352°
2026-04-23 16:22 54.11695 -3.25259 4513 ft 165 kts 336°
2026-04-23 16:23 54.12668 -3.26296 4522 ft 164 kts 323°
2026-04-23 16:23 54.13583 -3.27460 4524 ft 164 kts 325°
2026-04-23 16:23 54.14527 -3.28572 4487 ft 166 kts 325°
2026-04-23 16:23 54.15457 -3.29751 4510 ft 163 kts 323°
2026-04-23 16:24 54.16372 -3.30923 4496 ft 164 kts 323°
2026-04-23 16:24 54.17276 -3.32104 4474 ft 165 kts 323°
2026-04-23 16:24 54.18200 -3.33257 4454 ft 165 kts 326°
2026-04-23 16:24 54.19162 -3.34370 4467 ft 163 kts 328°
2026-04-23 16:25 54.20124 -3.35388 4448 ft 164 kts 330°
2026-04-23 16:25 54.21104 -3.36392 4424 ft 164 kts 330°
2026-04-23 16:25 54.22095 -3.37408 4436 ft 163 kts 329°
2026-04-23 16:25 54.23056 -3.38434 4417 ft 164 kts 328°
2026-04-23 16:26 54.23987 -3.39586 4415 ft 163 kts 321°
2026-04-23 16:26 54.24841 -3.40800 4492 ft 158 kts 320°
2026-04-23 16:26 54.25687 -3.42062 4437 ft 163 kts 318°
2026-04-23 16:26 54.26512 -3.43390 4483 ft 159 kts 315°
2026-04-23 16:27 54.27313 -3.44698 4449 ft 163 kts 319°
2026-04-23 16:27 54.28216 -3.45923 4440 ft 163 kts 324°
2026-04-23 16:27 54.29121 -3.47041 4476 ft 161 kts 325°
2026-04-23 16:27 54.30036 -3.48176 4445 ft 163 kts 324°
2026-04-23 16:28 54.30935 -3.49355 4457 ft 162 kts 321°
2026-04-23 16:28 54.31799 -3.50605 4454 ft 162 kts 320°
2026-04-23 16:28 54.32669 -3.51833 4444 ft 162 kts 322°
2026-04-23 16:28 54.33558 -3.53025 4459 ft 161 kts 323°
2026-04-23 16:29 54.34447 -3.54213 4441 ft 163 kts 322°
2026-04-23 16:29 54.35319 -3.55439 4459 ft 161 kts 320°
2026-04-23 16:29 54.36214 -3.56652 4444 ft 163 kts 323°
2026-04-23 16:29 54.37109 -3.57821 4460 ft 161 kts 323°
2026-04-23 16:30 54.38011 -3.58974 4459 ft 162 kts 324°
2026-04-23 16:30 54.38935 -3.60144 4446 ft 162 kts 324°
2026-04-23 16:30 54.39835 -3.61275 4466 ft 160 kts 324°
2026-04-23 16:30 54.40736 -3.62409 4456 ft 162 kts 324°
2026-04-23 16:31 54.41644 -3.63570 4461 ft 161 kts 323°
2026-04-23 16:31 54.42535 -3.64735 4474 ft 160 kts 322°
2026-04-23 16:31 54.43424 -3.65943 4461 ft 162 kts 320°
2026-04-23 16:31 54.44295 -3.67169 4460 ft 162 kts 320°
2026-04-23 16:32 54.45162 -3.68392 4460 ft 162 kts 320°
2026-04-23 16:32 54.46031 -3.69631 4470 ft 161 kts 320°
2026-04-23 16:32 54.46878 -3.70862 4477 ft 161 kts 319°
2026-04-23 16:32 54.47731 -3.72153 4448 ft 163 kts 318°
2026-04-23 16:33 54.48577 -3.73418 4483 ft 160 kts 319°
2026-04-23 16:33 54.49427 -3.74675 4478 ft 161 kts 317°
2026-04-23 16:33 54.50265 -3.75967 4465 ft 162 kts 317°
2026-04-23 16:33 54.51100 -3.77244 4492 ft 161 kts 319°
2026-04-23 16:34 54.51999 -3.78424 4465 ft 163 kts 324°
2026-04-23 16:34 54.52924 -3.79531 4471 ft 162 kts 325°
2026-04-23 16:34 54.53858 -3.80621 4488 ft 161 kts 326°
2026-04-23 16:34 54.54786 -3.81681 4471 ft 162 kts 326°
2026-04-23 16:35 54.55735 -3.82731 4485 ft 162 kts 327°
2026-04-23 16:35 54.56688 -3.83791 4478 ft 162 kts 326°
2026-04-23 16:35 54.57637 -3.84870 4491 ft 162 kts 326°
2026-04-23 16:35 54.58544 -3.85966 4498 ft 161 kts 323°
2026-04-23 16:36 54.59412 -3.87194 4484 ft 162 kts 316°
2026-04-23 16:36 54.60176 -3.88622 4492 ft 160 kts 306°
2026-04-23 16:36 54.60741 -3.90271 4470 ft 160 kts 294°
2026-04-23 16:36 54.61427 -3.91777 4417 ft 165 kts 321°
2026-04-23 16:37 54.62377 -3.92898 4463 ft 160 kts 327°
2026-04-23 16:37 54.63305 -3.93919 4473 ft 160 kts 328°
2026-04-23 16:37 54.64269 -3.94948 4451 ft 162 kts 328°
2026-04-23 16:37 54.65208 -3.95994 4474 ft 161 kts 325°
2026-04-23 16:38 54.66111 -3.97155 4466 ft 162 kts 319°
2026-04-23 16:38 54.66983 -3.98410 4455 ft 163 kts 322°
2026-04-23 16:38 54.67890 -3.99539 4484 ft 160 kts 326°
2026-04-23 16:38 54.68840 -4.00590 4473 ft 162 kts 328°
2026-04-23 16:39 54.69798 -4.01592 4479 ft 162 kts 328°
2026-04-23 16:39 54.70750 -4.02657 4490 ft 161 kts 326°
2026-04-23 16:39 54.71673 -4.03743 4508 ft 161 kts 326°
2026-04-23 16:39 54.72602 -4.04851 4495 ft 162 kts 325°
2026-04-23 16:40 54.73508 -4.05982 4523 ft 160 kts 323°
2026-04-23 16:40 54.74383 -4.07148 4512 ft 160 kts 322°
2026-04-23 16:40 54.75264 -4.08340 4524 ft 160 kts 321°
2026-04-23 16:40 54.76157 -4.09530 4513 ft 162 kts 322°
2026-04-23 16:41 54.77045 -4.10687 4527 ft 160 kts 322°
2026-04-23 16:41 54.77936 -4.11820 4532 ft 160 kts 324°
2026-04-23 16:41 54.78862 -4.12938 4529 ft 161 kts 325°
2026-04-23 16:41 54.79782 -4.14010 4552 ft 160 kts 326°
2026-04-23 16:42 54.80734 -4.15074 4538 ft 162 kts 327°
2026-04-23 16:42 54.81675 -4.16111 4556 ft 161 kts 327°
2026-04-23 16:42 54.82612 -4.17166 4574 ft 160 kts 326°
2026-04-23 16:42 54.83536 -4.18283 4551 ft 162 kts 323°
2026-04-23 16:43 54.84439 -4.19453 4585 ft 160 kts 323°
2026-04-23 16:43 54.85339 -4.20624 4543 ft 163 kts 323°
2026-04-23 16:43 54.86249 -4.21791 4550 ft 162 kts 323°
2026-04-23 16:43 54.87149 -4.22954 4571 ft 160 kts 323°
2026-04-23 16:44 54.88027 -4.24129 4546 ft 161 kts 322°
2026-04-23 16:44 54.88914 -4.25340 4557 ft 161 kts 322°
2026-04-23 16:44 54.89797 -4.26521 4534 ft 162 kts 322°
2026-04-23 16:44 54.90682 -4.27743 4545 ft 161 kts 320°
2026-04-23 16:45 54.91538 -4.29011 4534 ft 162 kts 317°
2026-04-23 16:45 54.92366 -4.30318 4526 ft 163 kts 317°
2026-04-23 16:45 54.93196 -4.31659 4533 ft 162 kts 316°
2026-04-23 16:45 54.94024 -4.32982 4525 ft 163 kts 321°
2026-04-23 16:46 54.94963 -4.34100 4516 ft 163 kts 331°
2026-04-23 16:46 54.95998 -4.34899 4514 ft 163 kts 343°
2026-04-23 16:46 54.97101 -4.35339 4513 ft 162 kts 351°
2026-04-23 16:46 54.98202 -4.35724 4536 ft 160 kts 349°
2026-04-23 16:47 54.99302 -4.36145 4510 ft 162 kts 349°
2026-04-23 16:47 55.00396 -4.36549 4499 ft 163 kts 350°
2026-04-23 16:47 55.01508 -4.36919 4500 ft 162 kts 352°
2026-04-23 16:47 55.02625 -4.37229 4482 ft 163 kts 354°
2026-04-23 16:48 55.03752 -4.37469 4480 ft 162 kts 356°
2026-04-23 16:48 55.04866 -4.37652 4484 ft 162 kts 358°
2026-04-23 16:48 55.05989 -4.37763 4464 ft 163 kts 359°
2026-04-23 16:48 55.07120 -4.37842 4474 ft 162 kts 360°
2026-04-23 16:49 55.07867 -4.37884 4468 ft 162 kts
2026-04-23 16:49 55.09371 -4.37924 4458 ft 162 kts
2026-04-23 16:49 55.10512 -4.37891 4386 ft 164 kts
2026-04-23 16:49 55.11648 -4.37828 4247 ft 165 kts
2026-04-23 16:50 55.12802 -4.37845 4157 ft 163 kts
2026-04-23 16:50 55.13933 -4.37822 4018 ft 165 kts
2026-04-23 16:50 55.15080 -4.37678 3936 ft 161 kts 11°
2026-04-23 16:50 55.16187 -4.37428 3827 ft 161 kts
2026-04-23 16:51 55.17323 -4.37401 3697 ft 162 kts
2026-04-23 16:51 55.18424 -4.37458 3618 ft 160 kts
2026-04-23 16:51 55.19543 -4.37425 3490 ft 161 kts
2026-04-23 16:51 55.20668 -4.37336 3398 ft 160 kts
2026-04-23 16:52 55.21770 -4.37301 3307 ft 160 kts
2026-04-23 16:52 55.22877 -4.37334 3194 ft 162 kts 357°
2026-04-23 16:52 55.24002 -4.37689 3108 ft 162 kts 349°
2026-04-23 16:52 55.25084 -4.38130 3036 ft 161 kts 350°
2026-04-23 16:53 55.26176 -4.38554 2873 ft 161 kts 351°
2026-04-23 16:53 55.27264 -4.38909 2754 ft 157 kts 355°
2026-04-23 16:53 55.28349 -4.39094 2623 ft 156 kts
2026-04-23 16:53 55.29432 -4.39189 2399 ft 160 kts
2026-04-23 16:54 55.30568 -4.39345 2121 ft 164 kts 357°
2026-04-23 16:54 55.31699 -4.39585 1882 ft 163 kts 357°
2026-04-23 16:54 55.32796 -4.39804 1788 ft 155 kts 359°
2026-04-23 16:54 55.33828 -4.39921 1800 ft 143 kts
2026-04-23 16:55 55.34810 -4.39979 1777 ft 139 kts
2026-04-23 16:55 55.35751 -4.40025 1827 ft 134 kts
2026-04-23 16:55 55.36668 -4.40062 1899 ft 132 kts
2026-04-23 16:55 55.37595 -4.40168 1889 ft 135 kts
2026-04-23 16:56 55.38546 -4.40379 1865 ft 139 kts 353°
2026-04-23 16:56 55.39473 -4.40717 1929 ft 135 kts 352°
2026-04-23 16:56 55.40390 -4.41103 1957 ft 136 kts 350°
2026-04-23 16:56 55.41309 -4.41547 1963 ft 137 kts 349°
2026-04-23 16:57 55.42234 -4.41966 1986 ft 137 kts 352°
2026-04-23 16:57 55.43166 -4.42320 2006 ft 137 kts 353°
2026-04-23 16:57 55.44078 -4.42774 1980 ft 137 kts 342°
2026-04-23 16:57 55.44931 -4.43590 1894 ft 142 kts 329°
2026-04-23 16:58 55.45722 -4.44658 1701 ft 143 kts 319°
2026-04-23 16:58 55.46324 -4.46042 1564 ft 138 kts 302°
2026-04-23 16:58 55.46764 -4.47384 1605 ft 119 kts 303°
2026-04-23 16:58 55.47180 -4.48567 1548 ft 115 kts 304°
2026-04-23 16:59 55.47601 -4.49765 1405 ft 118 kts 305°
2026-04-23 16:59 55.48018 -4.50939 1365 ft 109 kts 304°
2026-04-23 16:59 55.48416 -4.52090 1251 ft 111 kts 303°
2026-04-23 16:59 55.48811 -4.53301 1084 ft 114 kts 302°
2026-04-23 17:00 55.49212 -4.54497 827 ft 115 kts 303°
2026-04-23 17:00 55.49646 -4.55688 570 ft 113 kts 302°
2026-04-23 17:00 55.50038 -4.56855 288 ft 107 kts 300°
2026-04-23 17:00 55.50406 -4.57896 83 ft 88 kts 298°
2026-04-23 17:01 55.50659 -4.58656 71 ft 56 kts 295°
2026-04-23 17:01 55.50763 -4.59055 70 ft 22 kts 253°
2026-04-23 17:01 55.50700 -4.59265 70 ft 14 kts 205°
2026-04-23 17:01 55.50626 -4.59136 70 ft 18 kts 121°
2026-04-23 17:02 55.50580 -4.58992 70 ft 21 kts 118°
2026-04-23 17:02 55.50496 -4.58695 70 ft 18 kts 120°
2026-04-23 17:02 55.50431 -4.58504 70 ft 17 kts 121°
2026-04-23 17:02 55.50369 -4.58344 70 ft 12 kts 144°
2026-04-23 17:03 55.50285 -4.58326 70 ft 12 kts 146°
2026-04-23 17:03 55.50253 -4.58247 70 ft 0 kts 176°